Time,TemperatureF,DewpointF,PressureIn,WindDirection,WindDirectionDegrees,WindSpeedMPH,WindSpeedGustMPH,Humidity,HourlyPrecipIn,Conditions,Clouds,dailyrainin,SoftwareType,DateUTC
2013-10-03 00:04:00,37.9,35.0,30.02,WNW,301,2.0,4.0,88,0.00,,,0.00,weatherlink.com 1.10,2013-10-03 07:04:00,
2013-10-03 00:20:00,38.1,35.0,30.02,WNW,302,3.0,4.0,87,0.00,,,0.00,weatherlink.com 1.10,2013-10-03 07:20:00,
2013-10-03 00:34:00,37.9,34.0,30.02,NW,305,3.0,5.0,87,0.00,,,0.00,weatherlink.com 1.10,2013-10-03 07:34:00,
2013-10-03 00:49:00,37.4,34.0,30.02,NNW,333,3.0,6.0,88,0.00,,,0.00,weatherlink.com 1.10,2013-10-03 07:49:00,
2013-10-03 01:04:00,37.0,34.0,30.02,NW,307,3.0,6.0,88,0.00,,,0.00,weatherlink.com 1.10,2013-10-03 08:04:00,
2013-10-03 01:19:00,36.9,34.0,30.02,WNW,301,4.0,6.0,89,0.00,,,0.00,weatherlink.com 1.10,2013-10-03 08:19:00,
2013-10-03 01:34:00,36.5,34.0,30.03,NW,311,3.0,4.0,90,0.00,,,0.00,weatherlink.com 1.10,2013-10-03 08:34:00,
2013-10-03 01:49:00,36.9,34.0,30.04,WNW,298,4.0,7.0,90,0.00,,,0.00,weatherlink.com 1.10,2013-10-03 08:49:00,
2013-10-03 02:05:00,37.2,35.0,30.04,West,266,6.0,10.0,91,0.00,,,0.00,weatherlink.com 1.10,2013-10-03 09:05:00,
2013-10-03 02:20:00,37.2,35.0,30.04,WNW,298,3.0,7.0,91,0.00,,,0.00,weatherlink.com 1.10,2013-10-03 09:20:00,
2013-10-03 02:35:00,37.2,35.0,30.05,NW,325,2.0,7.0,91,0.00,,,0.00,weatherlink.com 1.10,2013-10-03 09:35:00,
2013-10-03 02:50:00,37.1,35.0,30.05,West,280,3.0,5.0,92,0.00,,,0.00,weatherlink.com 1.10,2013-10-03 09:50:00,
2013-10-03 03:05:00,37.1,35.0,30.05,WSW,255,2.0,8.0,92,0.00,,,0.00,weatherlink.com 1.10,2013-10-03 10:05:00,
2013-10-03 03:20:00,36.9,35.0,30.05,WNW,301,5.0,7.0,92,0.00,,,0.00,weatherlink.com 1.10,2013-10-03 10:20:00,
2013-10-03 03:35:00,36.7,35.0,30.06,West,278,1.0,6.0,92,0.00,,,0.00,weatherlink.com 1.10,2013-10-03 10:35:00,
2013-10-03 03:50:00,36.5,35.0,30.07,WSW,253,4.0,6.0,93,0.00,,,0.00,weatherlink.com 1.10,2013-10-03 10:50:00,
2013-10-03 04:05:00,36.3,35.0,30.07,NW,311,4.0,5.0,93,0.00,,,0.00,weatherlink.com 1.10,2013-10-03 11:05:00,
2013-10-03 04:20:00,36.0,34.0,30.07,WSW,248,4.0,6.0,93,0.00,,,0.00,weatherlink.com 1.10,2013-10-03 11:20:00,
2013-10-03 04:35:00,35.5,34.0,30.08,WNW,302,2.0,5.0,94,0.00,,,0.00,weatherlink.com 1.10,2013-10-03 11:35:00,
2013-10-03 04:50:00,35.1,34.0,30.08,WSW,254,2.0,7.0,94,0.00,,,0.00,weatherlink.com 1.10,2013-10-03 11:50:00,
2013-10-03 05:05:00,34.8,34.0,30.09,WNW,293,2.0,3.0,95,0.00,,,0.00,weatherlink.com 1.10,2013-10-03 12:05:00,
2013-10-03 05:20:00,34.9,34.0,30.10,West,281,2.0,6.0,95,0.00,,,0.00,weatherlink.com 1.10,2013-10-03 12:20:00,
2013-10-03 05:35:00,34.8,34.0,30.10,West,271,0.0,6.0,95,0.00,,,0.00,weatherlink.com 1.10,2013-10-03 12:35:00,
2013-10-03 05:50:00,34.3,33.0,30.10,WNW,283,1.0,6.0,95,0.00,,,0.00,weatherlink.com 1.10,2013-10-03 12:50:00,
2013-10-03 06:05:00,34.0,33.0,30.11,West,273,2.0,5.0,95,0.00,,,0.00,weatherlink.com 1.10,2013-10-03 13:05:00,
2013-10-03 06:20:00,33.7,33.0,30.12,NW,309,4.0,5.0,95,0.00,,,0.00,weatherlink.com 1.10,2013-10-03 13:20:00,
2013-10-03 06:35:00,33.5,32.0,30.12,West,276,2.0,6.0,95,0.00,,,0.00,weatherlink.com 1.10,2013-10-03 13:35:00,
2013-10-03 06:50:00,33.5,33.0,30.13,WNW,290,0.0,5.0,96,0.00,,,0.00,weatherlink.com 1.10,2013-10-03 13:50:00,
2013-10-03 07:05:00,33.3,32.0,30.14,West,277,3.0,6.0,96,0.00,,,0.00,weatherlink.com 1.10,2013-10-03 14:05:00,
2013-10-03 07:20:00,33.2,32.0,30.15,West,273,2.0,5.0,96,0.00,,,0.00,weatherlink.com 1.10,2013-10-03 14:20:00,
2013-10-03 07:35:00,33.2,32.0,30.16,WNW,298,2.0,6.0,96,0.00,,,0.00,weatherlink.com 1.10,2013-10-03 14:35:00,
2013-10-03 07:50:00,33.5,33.0,30.17,WNW,285,2.0,6.0,96,0.00,,,0.00,weatherlink.com 1.10,2013-10-03 14:50:00,
2013-10-03 08:05:00,33.7,33.0,30.18,WNW,294,4.0,6.0,96,0.00,,,0.00,weatherlink.com 1.10,2013-10-03 15:05:00,
2013-10-03 08:21:00,34.1,33.0,30.19,NW,307,6.0,8.0,96,0.00,,,0.00,weatherlink.com 1.10,2013-10-03 15:21:00,
2013-10-03 08:36:00,34.4,33.0,30.19,WNW,302,5.0,10.0,96,0.00,,,0.00,weatherlink.com 1.10,2013-10-03 15:36:00,
2013-10-03 08:51:00,34.7,34.0,30.20,West,281,5.0,12.0,96,0.00,,,0.00,weatherlink.com 1.10,2013-10-03 15:51:00,
2013-10-03 09:06:00,34.8,34.0,30.20,WNW,293,5.0,10.0,96,0.00,,,0.00,weatherlink.com 1.10,2013-10-03 16:06:00,
2013-10-03 09:21:00,34.7,34.0,30.21,West,271,4.0,9.0,96,0.00,,,0.00,weatherlink.com 1.10,2013-10-03 16:21:00,
2013-10-03 09:36:00,34.8,34.0,30.21,WNW,295,8.0,12.0,97,0.00,,,0.00,weatherlink.com 1.10,2013-10-03 16:36:00,
2013-10-03 09:51:00,35.7,35.0,30.22,NW,307,7.0,13.0,97,0.00,,,0.00,weatherlink.com 1.10,2013-10-03 16:51:00,
2013-10-03 10:06:00,36.3,35.0,30.23,West,280,5.0,11.0,95,0.00,,,0.00,weatherlink.com 1.10,2013-10-03 17:06:00,
2013-10-03 10:21:00,37.2,36.0,30.23,West,278,8.0,11.0,95,0.00,,,0.00,weatherlink.com 1.10,2013-10-03 17:21:00,
2013-10-03 10:36:00,37.8,36.0,30.24,West,264,11.0,12.0,94,0.00,,,0.00,weatherlink.com 1.10,2013-10-03 17:36:00,
2013-10-03 10:51:00,38.7,37.0,30.24,WNW,295,10.0,12.0,93,0.00,,,0.00,weatherlink.com 1.10,2013-10-03 17:51:00,
2013-10-03 11:06:00,39.9,37.0,30.24,WNW,286,7.0,14.0,90,0.00,,,0.00,weatherlink.com 1.10,2013-10-03 18:06:00,
2013-10-03 11:21:00,41.2,38.0,30.24,West,267,7.0,13.0,87,0.00,,,0.00,weatherlink.com 1.10,2013-10-03 18:21:00,
2013-10-03 11:36:00,42.6,38.0,30.25,WNW,285,8.0,14.0,85,0.00,,,0.00,weatherlink.com 1.10,2013-10-03 18:36:00,
2013-10-03 11:51:00,43.6,39.0,30.25,West,267,10.0,13.0,83,0.00,,,0.00,weatherlink.com 1.10,2013-10-03 18:51:00,
2013-10-03 12:06:00,44.4,39.0,30.25,NW,323,6.0,12.0,80,0.00,,,0.00,weatherlink.com 1.10,2013-10-03 19:06:00,
2013-10-03 12:21:00,45.2,39.0,30.25,WSW,257,10.0,13.0,79,0.00,,,0.00,weatherlink.com 1.10,2013-10-03 19:21:00,
2013-10-03 12:36:00,45.9,39.0,30.25,WNW,288,7.0,12.0,78,0.00,,,0.00,weatherlink.com 1.10,2013-10-03 19:36:00,
2013-10-03 12:51:00,46.5,40.0,30.25,West,276,4.0,13.0,78,0.00,,,0.00,weatherlink.com 1.10,2013-10-03 19:51:00,
2013-10-03 13:06:00,46.9,40.0,30.25,NW,316,5.0,12.0,76,0.00,,,0.00,weatherlink.com 1.10,2013-10-03 20:06:00,
2013-10-03 13:21:00,47.8,39.0,30.25,West,263,7.0,12.0,72,0.00,,,0.00,weatherlink.com 1.10,2013-10-03 20:21:00,
2013-10-03 13:36:00,47.6,39.0,30.26,WSW,242,9.0,13.0,73,0.00,,,0.00,weatherlink.com 1.10,2013-10-03 20:36:00,
2013-10-03 13:51:00,47.8,40.0,30.25,WSW,255,7.0,11.0,73,0.00,,,0.00,weatherlink.com 1.10,2013-10-03 20:51:00,
2013-10-03 14:06:00,48.0,40.0,30.26,WNW,288,7.0,14.0,73,0.00,,,0.00,weatherlink.com 1.10,2013-10-03 21:06:00,
2013-10-03 14:22:00,49.1,40.0,30.26,West,270,7.0,13.0,71,0.00,,,0.00,weatherlink.com 1.10,2013-10-03 21:22:00,
2013-10-03 14:37:00,49.7,40.0,30.26,West,277,3.0,12.0,69,0.00,,,0.00,weatherlink.com 1.10,2013-10-03 21:37:00,
2013-10-03 14:52:00,50.2,40.0,30.26,WSW,255,11.0,13.0,67,0.00,,,0.00,weatherlink.com 1.10,2013-10-03 21:52:00,
2013-10-03 15:07:00,51.6,40.0,30.26,SW,226,11.0,12.0,65,0.00,,,0.00,weatherlink.com 1.10,2013-10-03 22:07:00,
2013-10-03 15:22:00,51.8,41.0,30.27,WSW,241,7.0,12.0,66,0.00,,,0.00,weatherlink.com 1.10,2013-10-03 22:22:00,
2013-10-03 15:37:00,52.4,40.0,30.27,SW,222,9.0,12.0,63,0.00,,,0.00,weatherlink.com 1.10,2013-10-03 22:37:00,
2013-10-03 15:52:00,49.3,39.0,30.29,ESE,106,3.0,11.0,69,0.00,,,0.00,weatherlink.com 1.10,2013-10-03 22:52:00,
2013-10-03 16:07:00,44.3,37.0,30.30,South,187,6.0,12.0,76,0.04,,,0.04,weatherlink.com 1.10,2013-10-03 23:07:00,
2013-10-03 16:22:00,43.7,38.0,30.29,SW,225,2.0,6.0,81,0.08,,,0.08,weatherlink.com 1.10,2013-10-03 23:22:00,
2013-10-03 16:37:00,44.7,40.0,30.30,WSW,242,3.0,7.0,83,0.09,,,0.09,weatherlink.com 1.10,2013-10-03 23:37:00,
2013-10-03 16:52:00,44.7,41.0,30.31,North,359,1.0,2.0,87,0.10,,,0.10,weatherlink.com 1.10,2013-10-03 23:52:00,
2013-10-03 17:07:00,45.3,42.0,30.31,North,11,0.0,0.0,87,0.06,,,0.10,weatherlink.com 1.10,2013-10-04 00:07:00,
2013-10-03 17:22:00,48.9,43.0,30.31,SSE,157,0.0,2.0,79,0.02,,,0.10,weatherlink.com 1.10,2013-10-04 00:22:00,
2013-10-03 17:37:00,46.5,41.0,30.31,West,267,1.0,3.0,80,0.01,,,0.10,weatherlink.com 1.10,2013-10-04 00:37:00,
2013-10-03 17:52:00,43.8,40.0,30.32,NW,308,4.0,4.0,85,0.00,,,0.10,weatherlink.com 1.10,2013-10-04 00:52:00,
2013-10-03 18:07:00,43.6,39.0,30.33,WNW,295,3.0,6.0,85,0.00,,,0.10,weatherlink.com 1.10,2013-10-04 01:07:00,
2013-10-03 18:22:00,42.6,39.0,30.34,WNW,297,1.0,3.0,86,0.00,,,0.10,weatherlink.com 1.10,2013-10-04 01:22:00,
2013-10-03 18:37:00,41.0,38.0,30.34,NNE,19,2.0,3.0,88,0.00,,,0.10,weatherlink.com 1.10,2013-10-04 01:37:00,
2013-10-03 18:52:00,39.9,37.0,30.35,NNE,25,2.0,3.0,89,0.00,,,0.10,weatherlink.com 1.10,2013-10-04 01:52:00,
2013-10-03 19:07:00,40.1,37.0,30.36,North,349,1.0,2.0,89,0.00,,,0.10,weatherlink.com 1.10,2013-10-04 02:07:00,
2013-10-03 19:22:00,40.7,38.0,30.36,North,356,3.0,3.0,89,0.00,,,0.10,weatherlink.com 1.10,2013-10-04 02:22:00,
2013-10-03 19:37:00,40.5,37.0,30.37,North,354,1.0,2.0,88,0.00,,,0.10,weatherlink.com 1.10,2013-10-04 02:37:00,
2013-10-03 19:52:00,39.2,37.0,30.38,NW,311,1.0,2.0,91,0.00,,,0.10,weatherlink.com 1.10,2013-10-04 02:52:00,
2013-10-03 20:07:00,39.9,37.0,30.38,NNE,24,3.0,3.0,90,0.00,,,0.10,weatherlink.com 1.10,2013-10-04 03:07:00,
2013-10-03 20:22:00,39.5,37.0,30.39,WNW,302,0.0,2.0,90,0.00,,,0.10,weatherlink.com 1.10,2013-10-04 03:22:00,
2013-10-03 20:37:00,39.1,37.0,30.40,NW,304,0.0,1.0,92,0.00,,,0.10,weatherlink.com 1.10,2013-10-04 03:37:00,
2013-10-03 20:52:00,38.0,36.0,30.40,WNW,303,0.0,0.0,91,0.00,,,0.10,weatherlink.com 1.10,2013-10-04 03:52:00,
2013-10-03 21:37:00,35.4,34.0,30.42,East,79,0.0,1.0,95,0.00,,,0.10,weatherlink.com 1.10,2013-10-04 04:37:00,
2013-10-03 21:53:00,35.1,34.0,30.42,NNE,29,0.0,1.0,94,0.00,,,0.10,weatherlink.com 1.10,2013-10-04 04:53:00,
2013-10-03 22:08:00,34.3,33.0,30.43,NNE,29,0.0,1.0,95,0.00,,,0.10,weatherlink.com 1.10,2013-10-04 05:08:00,
2013-10-03 22:23:00,32.3,31.0,30.43,WSW,239,0.0,0.0,94,0.00,,,0.10,weatherlink.com 1.10,2013-10-04 05:23:00,
2013-10-03 22:38:00,31.7,31.0,30.44,SE,138,0.0,0.0,95,0.00,,,0.10,weatherlink.com 1.10,2013-10-04 05:38:00,
2013-10-03 22:53:00,31.0,30.0,30.44,SE,138,0.0,0.0,96,0.00,,,0.10,weatherlink.com 1.10,2013-10-04 05:53:00,
2013-10-03 23:08:00,30.1,29.0,30.44,SE,138,0.0,0.0,96,0.00,,,0.10,weatherlink.com 1.10,2013-10-04 06:08:00,
2013-10-03 23:23:00,29.6,29.0,30.45,SE,137,0.0,0.0,96,0.00,,,0.10,weatherlink.com 1.10,2013-10-04 06:23:00,
2013-10-03 23:38:00,30.6,30.0,30.45,SE,138,0.0,0.0,97,0.00,,,0.10,weatherlink.com 1.10,2013-10-04 06:38:00,
2013-10-03 23:53:00,29.8,29.0,30.45,SE,138,0.0,0.0,96,0.00,,,0.10,weatherlink.com 1.10,2013-10-04 06:53:00,